www.pogodaiklimat.ru
ПОГОДА в Роулинсе
Время
и дата
17:53 18.07
18:53 18.07
19:53 18.07
20:53 18.07
21:53 18.07
22:53 18.07
23:53 18.07
00:53 19.07
01:53 19.07
02:53 19.07
03:53 19.07
04:53 19.07
05:53 19.07
06:53 19.07
07:53 19.07
08:53 19.07
09:53 19.07
10:53 19.07
11:53 19.07
12:53 19.07
13:04 19.07
13:27 19.07
13:32 19.07
13:43 19.07
13:53 19.07
14:02 19.07
14:53 19.07
15:53 19.07
16:15 19.07
16:53 19.07
17:53 19.07
18:53 19.07
19:53 19.07
20:53 19.07
21:53 19.07
22:53 19.07
23:53 19.07
00:53 20.07
01:53 20.07
02:53 20.07
03:53 20.07
04:53 20.07
05:53 20.07
06:53 20.07
07:53 20.07
08:53 20.07
09:53 20.07
10:53 20.07
Ветер
(напр.,м/с)
Видим. Явления Облачность Т
(С)
Тd
(С)
f
(%)
Тe
(С)
Тes
(С)
Комфортность P
(гПа)
Po
(гПа)
Тmin
(С)
Tmax
(С)
R
(мм)
R24
(мм)
S
(см)
СЗ 4 16 км ясно +30.6 -1.1 13 +27 +30 жарко 1013.8 796.1
СЗ 2 16 км ясно +27.8 -0.6 16 +25 +27 комфорт 1014.1 796.1
СЗ 3 16 км ясно +25.0 -0.6 18 +23 +23 комфорт 1014.2 796.1
СЗ 3 16 км ясно +25.0 -0.6 18 +23 +23 комфорт 1013.9 796.6
СЗ 4 16 км ясно +21.7 -0.6 23 +21 +21 комфорт 1014.5 796.9
СЗ 5 16 км ясно +22.2 +1.7 26 +22 +22 комфорт 1015.1 797.9 +19.4 +31.7
СЗ 7 16 км ясно +22.8 +4.4 30 +23 +23 комфорт 1015.1 798.2
З 4
{9}
16 км 5/0 3600 m
[Ac]
+20.6 +5.6 37 +22 +22 комфорт 1016.4 798.5
З 3 16 км 8/0 2400 m
[Ac]
+18.9 +5.6 42 +19 +19 1015.8 798.2
ЮЗ 2 16 км ясно +16.1 +5.0 48 +16 +16 1015.9 797.9
Ю 2 16 км ясно +15.6 +4.4 47 +16 +16 1016.0 797.9
штиль 0 16 км ясно +12.2 +3.3 54 +12 +12 1016.9 798.2 +12.2 +23.3
ЮЗ 2 16 км ясно +17.2 +4.4 43 +18 +18 1016.4 798.2
ЮЗ 3 16 км ясно +22.2 +5.6 34 +23 +23 комфорт 1016.6 798.7
ЮЗ 4
{8}
16 км ясно +24.4 +5.0 29 +24 +26 комфорт 1016.8 799.0
ЮЗ 4 16 км ясно +26.1 +5.6 27 +25 +30 комфорт 1016.6 799.0
ЮЗ 5 16 км ясно +27.2 +5.0 24 +26 +32 жарко 1016.7 798.7
16 км ясно +28.9 +3.9 20 +27 +48 жарко 1016.0 798.5 +12.2 +29.4
З 5
{8}
16 км ясно +29.4 +3.3 19 +27 +37 жарко 1015.6 798.2
СЗ 4
{8}
16 км 5/0 3300 m
[Ac]
+30.6 +3.3 18 +28 +37 жарко 1014.7 797.4
16 км гроза 8/0 3000 m
[Ac]
+29.4 +2.8 18 +27 +38 жарко 797.7
СЗ 14
{23}
11 км гроза со слабым дождем 8/0 3000 m
[Ac]
+24.4 +5.0 29 +24 +24 комфорт 797.9
С 6
{22}
1 км гроза с сильным дождем 8/2 390 m
[Ac Cb]
+16.7 +9.4 62 +16 +18 799.0
нст 3
{15}
3 км гроза с дождем 10/5 840 m
[Ac Cb]
+17.8 +6.7 48 +18 +20 798.5
В 3 8 км гроза со слабым дождем 8/5 930 m
[Ac Cb]
+19.4 +8.3 49 +20 +25 1017.7 797.9 6.1
В 3 16 км 5/2 1170 m
[Ac]
+22.8 +12.2 51 +25 +33 комфорт 797.7
З 3 16 км ясно +28.3 +5.6 24 +27 +41 жарко 1015.7 797.4
З 5 16 км 2/0 3300 m
[Ac]
+27.8 +5.0 23 +27 +32 жарко 1015.6 797.1
СЗ 13
{20}
16 км слабый дождь 2/0 3300 m
[Ac As]
+27.8 +5.6 24 +27 +27 жарко 797.1
С 7
{11}
16 км 5/0 2850 m
[Ac]
+27.8 +4.4 22 +26 +28 жарко 1016.7 797.4 +16.1 +32.8 6.1
СВ 8
{13}
16 км ясно +25.6 +6.1 29 +25 +26 комфорт 1016.7 797.9
СВ 6
{9}
16 км ясно +21.7 +7.8 41 +23 +23 комфорт 1017.2 798.5
штиль 0 16 км 2/0 3600 m
[Ac]
+18.9 +8.3 50 +19 +20 1017.7 798.7
В 2 16 км 8/0 3600 m
[Ac]
+18.3 +8.9 54 +19 +19 1018.4 799.2
С 3 16 км 2/0 3600 m
[Ac]
+17.8 +10.0 60 +18 +18 1018.3 799.2
С 6 16 км 2/0 2700 m
[Ac]
+17.2 +8.9 58 +16 +16 1019.1 800.0 +16.7 +27.8
СВ 5 16 км ясно +16.1 +8.3 60 +15 +15 1019.3 800.0
штиль 0 16 км ясно +12.8 +8.9 77 +12 +12 1019.2 799.8
З 3 16 км ясно +11.7 +8.9 83 +10 +10 1021.8 799.8
СЗ 4 16 км ясно +11.1 +8.3 83 +9 +9 1020.0 799.8
С 3 16 км ясно +11.7 +7.8 77 +10 +10 1020.4 800.0
СЗ 2 16 км ясно +10.0 +7.2 83 +8 +8 1021.2 800.3 +10.0 +18.3 6.1
С 2 16 км ясно +12.2 +8.3 77 +11 +11 1021.2 800.3
В 2 16 км ясно +16.1 +8.9 62 +16 +17 1021.7 800.8
штиль 0 16 км ясно +18.3 +8.9 54 +19 +23 1021.8 800.8
нст 2 16 км ясно +21.7 +7.8 41 +23 +30 комфорт 1021.2 800.8
ЮВ 3 16 км ясно +23.9 +6.7 33 +24 +33 комфорт 1020.8 800.8
З 3 16 км ясно +25.6 +5.0 27 +25 +38 комфорт 1020.5 800.8 +10.0 +26.7
Местоположение метеостанции Rawlins Municipal Airport: широта 41.8056 долгота -107.1997 высота над уровнем моря 2077 м.
В архиве по умолчанию представлена погода в Роулинсе за последние 1-2 суток. Обновление информации о фактической погоде в базе происходит ежечасно! Архивные данные за месяц целиком и за предыдущие месяцы Вы можете получить, выбрав интересующий диапазон дат из раскрывающегося списка и нажав кнопку "Ввод!".
Внимание! Архив погоды МЕТАР в базе сайта по станциям, не включенным в климатический монитор, хранится не более 60 дней. Нет смысла пытаться выбрать более раннюю дату.
*Определитесь, кто Вы:
Внимание! Время в таблицах - местное (без учета летнего времени). Для получения всемирного времени необходимо вычесть поправку, которая равна -7 ч.
Смотрите также архив погоды в соседних городах и на ближайших метеорологических станциях:
Партнеры нашего сайта:      
Пояснения к столбцам:
  • Ветер - указаны скорость ветра в м/с - средняя за 10 мин, порывы в срок и между сроками (в фигурных скобках) и направление, откуда дует ветер: С - северный,
  • СВ - северо-восточный, В - восточный, ЮВ - юго-восточный, Ю - южный, ЮЗ - юго-западный, З - западный, СЗ - северо-западный.
  • Видимость - горизонтальная дальность видимости в метрах или километрах. При видимости от 1 до 10 км при отсутствии осадков обычно наблюдается дымка, при ухудшении видимости до 1 км и менее - туман. В сухую погоду видимость может ухудшаться дымом, пылью или мглою.
  • Явления - указаны атмосферные явления, наблюдавшиеся в срок или в последний час перед сроком; фигурными скобками обозначены явления, наблюдавшиеся между сроками (за 1-3 часа до срока); квадратными скобками обозначены град или гололедные отложения с указанием их диаметра в мм.
  • Облачность - указаны через наклонную черту общая и нижняя облачность в баллах и высота нижней границы облаков в метрах; квадратными скобками обозначены формы облаков: Ci - перистые, Cs - перисто-слоистые, Cc - перисто-кучевые, Ac - высококучевые, As - высокослоистые, Sc - слоисто-кучевые, Ns - слоисто-дождевые, Cu - кучевые, Cb - кучево-дождевые. Подробнее классификацию облаков см. в Атласе облаков (PDF).
  • T - Температура воздуха - температура, измеренная на высоте 2 м над землей.
  • Td - Температура точки росы - температура, при понижении до которой содержащийся в воздухе водяной пар достигнет насыщения.
  • f - Относительная влажность воздуха - влажноcть воздуха, измеренная на высоте 2 м над землей.
  • Te - Эффективная температура - температура, которую ощущает одетый по сезону человек в тени. Характеристика душности погоды. При расчете учитывается влияние влажности воздуха и скорости ветра на теплоощущения человека.
  • Tes - Эффективная температура на солнце - температура, которую ощущает человек, с поправкой на солнечный нагрев. Характеристика знойности погоды. Зависит от высоты солнца над горизонтом, облачности и скорости ветра. Ночью, в пасмурную погоду, а также при ветре 12 м/с и более поправка равна нулю.
  • P - Атмосферное давление - приведенное к уровню моря атмосферное давление.
  • Po - Атмосферное давление - измеренное на уровне метеостанции атмосферное давление.
  • Tmin - Минимальная температура - минимум температуры воздуха на высоте 2 м над землей.
  • Tmax - Максимальная температура - максимум температуры воздуха на высоте 2 м над землей.
  • R - Количество осадков - Количество выпавших осадков за период времени, мм. При наведении курсора мыши на число - период времени, за который выпало указанное количество осадков.
  • R24 - Количество осадков - Количество выпавших осадков за 24 часа, мм.
  • S - Снежный покров - Высота снежного покрова, см. При наведении курсора мыши на число - состояние снежного покрова и степень покрытия местности в баллах.